Tracking 18852 objects as of 24-Nov-2017
HD Live streaming from Space Station
objects crossing your sky now

COSMOS 1196

Track COSMOS 1196 now!
10-day predictions
COSMOS 1196 is classified as:


NORAD ID: 11879
Int'l Code: 1980-058E
Perigee: 1,474.2 km
Apogee: 1,482.8 km
Inclination: 74.0 °
Period: 115.4 minutes
Semi major axis: 7849 km
RCS: 0.6946 m2 (medium)
Launch date: July 9, 1980
Source: Commonwealth of Independent States (former USSR) (CIS)
Launch site: PLESETSK MISSILE AND SPACE COMPLEX (PKMTR)
aabbcc
Your satellite tracking list
Your tracking list is empty




NASA's NSSDC Master Catalog

Two Line Element Set (TLE):
1 11879U 80058E   17328.16558480 -.00000009 +00000-0 +44152-4 0  9995
2 11879 074.0180 209.8583 0005456 233.2921 243.2980 12.48364011182172
Source of the keplerian elements: AFSPC